ZHONGXING-9

Last updated on Tue Nov 04 2025 00:02:44 GMT+0000 (Coordinated Universal Time)

1 33051U 08028A 25307.60189447 -.00000236 00000+0 00000+0 0 9996 2 33051 0.1893 89.2014 0007835 156.1232 106.9005 1.00270727 63772
UTC large
Height (km)
Speed (km/s)
/
Latitude / Longitude
Inclination (degrees)
Orbital Period (minutes)
Azimuth
Elevation
Range (km)
Doppler Factor

Next 0 passes for location: London (51.5072 / 0.1276)

Sorry there are no passes over London.